📊 Raw Sensor Data

Showing records 40076 to 40100 of 84,957 total

ID Distance (ft) Battery V Battery A Int Temp (°F) Int Humid (%) Ext Temp (°F) Solar V RSSI SNR Time Stamp
44894 15.6 4.00 0 102 49 93 5.10 -72 7 06/29/2025 05:45 PM
44893 15.5 3.94 0 102 48 94 5.10 -72 8 06/29/2025 05:30 PM
44892 15.6 3.94 0 103 48 95 5.10 -72 7 06/29/2025 05:15 PM
44891 15.6 3.94 0 104 47 94 5.10 -72 7 06/29/2025 05:00 PM
44890 15.6 3.94 0 105 46 96 5.10 -72 8 06/29/2025 04:45 PM
44889 15.6 3.95 0 104 46 96 5.10 -72 8 06/29/2025 04:30 PM
44888 15.6 3.94 0 103 45 95 5.10 -71 8 06/29/2025 04:15 PM
44887 15.5 3.94 0 102 45 96 5.10 -71 7 06/29/2025 04:00 PM
44886 15.5 3.94 0 102 45 93 5.10 -71 8 06/29/2025 03:45 PM
44885 15.5 3.94 0 102 45 93 5.10 -72 7 06/29/2025 03:30 PM
44884 15.5 3.94 0 102 45 95 5.10 -71 8 06/29/2025 03:15 PM
44883 15.6 3.94 0 103 43 96 5.10 -71 7 06/29/2025 03:00 PM
44882 15.5 3.94 0 103 43 96 5.10 -70 8 06/29/2025 02:45 PM
44881 15.5 3.94 0 102 43 94 5.10 -71 8 06/29/2025 02:30 PM
44880 15.5 3.94 0 101 43 95 5.10 -70 7 06/29/2025 02:15 PM
44879 15.5 3.94 0 100 43 94 5.10 -71 8 06/29/2025 02:00 PM
44878 15.5 3.94 0 99 43 92 5.10 -70 7 06/29/2025 01:45 PM
44877 15.5 3.94 0 98 43 92 5.10 -72 8 06/29/2025 01:30 PM
44876 15.5 3.94 0 97 44 93 5.10 -69 8 06/29/2025 01:15 PM
44875 15.5 3.94 0 96 44 91 5.10 -70 8 06/29/2025 01:00 PM
44874 15.5 3.94 0 94 44 91 5.10 -71 8 06/29/2025 12:30 PM
44873 15.5 4.12 0 93 44 91 5.20 -69 7 06/29/2025 12:15 PM
44872 15.5 4.07 0 92 44 92 5.10 -71 7 06/29/2025 12:00 PM
44871 15.5 4.02 0 91 44 92 5.10 -68 7 06/29/2025 11:45 AM
44870 15.5 3.94 0 89 44 92 5.10 -69 7 06/29/2025 11:30 AM